2022-056A (52716 NORAD) Tracking and Keplerian Element Data
This shows tracking and keplerian element data for the satellite.
Feedback or suggestion? Click here.
Element | Value |
Catalog | 52716 |
Name | 2022-056A |
Epoch Orbit | 373 |
Epoch Day | 167.00307006 |
Epoch Year | 2022 |
RAAN | 308.49 |
Inclination | 86.0024 |
Eccentricity | 0.0018906 |
Argument of Perigee | 217.1534 |
Mean Anonmoly | 142.8247 |
Mean Motion | 14.03350214 |
Decay Rate | 7.199E-05 |
L1 | 1 52716U 22056A 22167.00307006 .00007199 00000+0 45899-2 0 9992 |
L2 | 2 52716 86.0024 308.4900 0018906 217.1534 142.8247 14.03350214 3738 |
Live tracking and technical data element details for 2022-056A (NORAD 52716). 2022-056A can be tracked NOW for your location showing map with azimuth and elevation plus other details from your city location.
Track the satellite on the map from your city or location and see movement details for azimuth, elevation, latitude, longitude, range, height, and movement on the map or in text.
IsCatalogInMostPopularTable: catalog: 52716, numindb: 4
Update: records affected: 1
GetName: 52716 2022-056A
Hit Count: updated at: Sat, 25 Jun 2022 04:21:45 GMT